Content
SEND FEEDBACK

Daily
Averages
Monthly
Summary
United States of America

CROSS KEYS, VIRGINIA


Home > North America > United States > Virginia
Elevation: 40 feet     Latitude: 36 04N     Longitude: 077 15W

WEATHER
 
SELECT A DAY
Number of Records: 386,808;   Date Range: 11/20/97 - 9/16/14
 
SHARE

PRINT THIS DATA

[ ← Previous Day ]
WEATHER ALMANAC - JANUARY 31, 2013
[ Next Day → ]
[ °C ]   °F
Weather ElementAverageHighLow
Temperature46.1 °F70 °F (12:35 am)33.1 °F (11:35 pm)
Dewpoint24.5 °F62.6 °F (12:35 am)15.6 °F (5:15 pm)
Humidity45 %77 % (12:35 am)27 % (1:55 pm)
Barometer29.86 in30.02 in (11:15 pm)29.37 in (1:15 am)
Wind Speed4.9 mph26.5 mph (12:35 am)
Wind Gust42.6 mph (12:35 am)
Weather ElementAverage
Visibility10 mi
Wind DirectionSSE (161 °)

Weather ElementTotal
Precipitation---
Heating Degree Days13.5 (Base 65)
Growing Degree Days1.6 (Base 50)
Averaged from 41 records on January 31, 2013
WEATHER CONDITIONS BREAKOUT
WIND DIRECTION BREAKOUT
WEATHER BY HOUR - JANUARY 31, 2013
[ °C ]   °F
Local TimeTemperatureDewpointHumidityBarometerVisibilityWind DirectionWind SpeedGust SpeedPrecipitationEventsConditions
12:35 AM70.0 °F62.6 °F77 %29.42 in10.0 miSouth (180°)26.5 mph42.6 mphLight Drizzle
12:55 AM70.0 °F62.6 °F77 %29.39 in10.0 miSouth (180°)20.7 mph41.4 mphLight Drizzle
1:15 AM70.0 °F62.6 °F77 %29.37 in10.0 miSouth (180°)24.2 mph39.1 mphOvercast
10:55 AM50.0 °F30.6 °F47 %29.78 in10.0 miWNW (290°)5.8 mph
11:15 AM50.0 °F30.6 °F47 %29.78 in10.0 miWest (260°)3.5 mphScattered Clouds
11:35 AM50.0 °F31.3 °F49 %29.79 in10.0 miWest (260°)3.5 mphScattered Clouds
11:55 AM51.8 °F31.1 °F45 %29.79 in10.0 miSW (230°)4.6 mphClear
12:15 PM50.0 °F23.4 °F35 %29.79 in10.0 miWNW (290°)8.1 mphClear
12:35 PM50.0 °F22.1 °F33 %29.80 in10.0 miWest (260°)6.9 mphClear
12:55 PM50.0 °F20.1 °F31 %29.79 in10.0 miWSW (250°)4.6 mphClear
1:15 PM50.0 °F21.9 °F33 %29.79 in10.0 miWest (280°)6.9 mphClear
1:35 PM50.0 °F22.6 °F34 %29.79 in10.0 miWest (270°)9.2 mphClear
1:55 PM50.0 °F16.7 °F27 %29.79 in10.0 miWest (270°)6.9 mph18.4 mphClear
2:15 PM50.0 °F17.8 °F28 %29.80 in10.0 miNW (320°)5.8 mph21.9 mphClear
2:35 PM50.0 °F18.5 °F29 %29.80 in10.0 miWSW (240°)5.8 mphClear
2:55 PM50.4 °F22.5 °F34 %29.81 in10.0 miWest (260°)5.8 mphScattered Clouds
3:15 PM50.0 °F20.1 °F31 %29.82 in10.0 miWSW (240°)6.9 mph18.4 mphScattered Clouds
3:35 PM50.0 °F18.9 °F29 %29.83 in10.0 miSW (230°)4.6 mph19.6 mphClear
3:55 PM50.0 °F18.3 °F29 %29.85 in10.0 miWSW (240°)4.6 mph21.9 mphClear
4:15 PM50.0 °F19.0 °F29 %29.86 in10.0 miWest (280°)8.1 mphClear
4:55 PM47.5 °F19.6 °F33 %29.88 in10.0 miWest (270°)5.8 mphScattered Clouds
5:15 PM46.4 °F15.6 °F29 %29.90 in10.0 miWest (280°)4.6 mphClear
5:35 PM45.1 °F17.6 °F33 %29.91 in10.0 miWest (270°)3.5 mphClear
5:55 PM45.1 °F16.9 °F32 %29.92 in10.0 miWest (260°)5.8 mphClear
6:15 PM45.1 °F18.0 °F34 %29.93 in10.0 miSW (230°)3.5 mphClear
6:35 PM45.1 °F18.0 °F34 %29.94 in10.0 miWest (280°)4.6 mphClear
6:55 PM45.1 °F19.2 °F36 %29.96 in10.0 miCalmClear
7:15 PM42.1 °F19.2 °F40 %29.97 in10.0 miCalmClear
7:35 PM38.3 °F19.8 °F47 %29.97 in10.0 miCalmClear
7:55 PM40.1 °F19.2 °F43 %29.98 in10.0 miCalmClear
8:15 PM38.7 °F19.8 °F47 %29.99 in10.0 miCalmClear
8:35 PM37.6 °F21.0 °F51 %29.99 in10.0 miCalmClear
9:15 PM35.1 °F23.5 °F63 %30.00 in10.0 miCalmClear
9:35 PM35.1 °F23.2 °F62 %30.00 in10.0 miCalmClear
9:55 PM35.1 °F23.9 °F64 %30.01 in10.0 miCalmClear
10:15 PM35.1 °F23.7 °F63 %30.01 in10.0 miCalmClear
10:35 PM35.1 °F23.2 °F62 %30.01 in10.0 miCalmClear
10:55 PM35.1 °F22.1 °F59 %30.01 in10.0 miCalmClear
11:15 PM34.3 °F23.4 °F64 %30.02 in10.0 miCalmClear
11:35 PM33.1 °F21.9 °F64 %30.02 in10.0 miCalmClear
11:55 PM33.1 °F22.5 °F65 %30.02 in10.0 miCalmClear
Hourly data recorded from KASJ, located miles away from Cross Keys, Virginia







STORIES FROM OUR PARTNERS